"startDT [UTC]","vpos","CH4 [ppm]","stdev(CH4) [ppm]","CO2 [ppm]","stdev(CO2) [ppm]","H2O [ppm]","stdev(H2O)","p_LGR [torr]","T_LGR [C]","mt1_LGR [us]","mt2_LGR [us]","T_ECpre [C]","T_EC1 [C]","T_EC2 [C]","p_inlet [hPa]","p_in [hPa]","p_out [hPa]","T_inlet [C]","RH_inlet [%]","dwpt_inlet [C]","T_vent [C]","RH_vent [%]","dwpt_vent [C]","flow_vent [l min-1]","flow_inlet [l min-1]","dwpt_sample [C]","T_room [C]"
2012-06-18 00:00:00,0.0,1.9239,0.0009,398.97,0.30,6.5,15.0,138.07,30.36,24.64,36.47,1.04,14.75,-27.18,-53,527,-911,21.7,23.9,0.2,22.1,1.7,-31.3,5.73,2.35,-28.8,27.7
2012-06-18 00:01:00,0.0,1.9220,0.0018,398.84,0.31,5.4,16.1,138.07,30.36,24.64,36.47,0.96,12.44,-27.18,-53,527,-911,21.7,24.1,0.3,22.1,1.7,-31.2,5.73,2.32,-28.8,27.7
2012-06-18 00:02:00,0.0,1.9201,0.0008,398.75,0.34,5.1,11.7,138.07,30.36,24.64,36.48,1.05,10.13,-27.17,-53,527,-911,21.7,24.3,0.4,22.1,1.7,-31.2,5.73,2.33,-28.9,27.6
2012-06-18 00:03:00,0.0,1.9215,0.0018,398.71,0.39,5.8,13.5,138.07,30.36,24.64,36.47,1.06,7.89,-27.16,-53,527,-911,21.7,24.3,0.5,22.1,1.7,-31.3,5.73,2.35,-28.8,27.6
2012-06-18 00:04:00,0.0,1.9239,0.0009,398.95,0.25,7.5,15.1,138.07,30.36,24.64,36.47,0.95,5.72,-27.15,-53,527,-911,21.7,23.9,0.2,22.1,1.7,-31.3,5.73,2.32,-28.9,27.7
2012-06-18 00:05:00,0.0,1.9245,0.0012,399.08,0.27,3.7,10.1,138.07,30.36,24.64,36.47,1.01,3.68,-27.12,-53,527,-911,21.7,23.7,0.1,22.1,1.7,-31.3,5.73,2.34,-28.9,27.7
2012-06-18 00:06:00,0.0,1.9252,0.0010,399.04,0.30,4.7,11.8,138.07,30.36,24.64,36.47,1.09,1.72,-27.10,-53,527,-911,21.7,23.7,0.1,22.1,1.7,-31.2,5.73,2.34,-28.9,27.7
2012-06-18 00:07:00,0.0,1.9254,0.0009,398.98,0.25,2.3,8.5,138.07,30.36,24.64,36.48,1.00,-0.14,-27.09,-53,527,-911,21.8,23.8,0.2,22.1,1.7,-31.3,5.73,2.31,-28.9,27.7
2012-06-18 00:08:00,0.0,1.9250,0.0009,398.82,0.26,6.9,13.7,138.07,30.36,24.64,36.48,0.96,-1.89,-27.07,-53,527,-911,21.8,23.9,0.2,22.1,1.7,-31.3,5.73,2.35,-28.9,27.6
2012-06-18 00:09:00,0.0,1.9253,0.0009,398.86,0.29,4.3,13.4,138.07,30.36,24.64,36.48,1.05,-3.54,-27.06,-53,527,-911,21.8,24.0,0.3,22.1,1.7,-31.3,5.73,2.33,-28.9,27.6
2012-06-18 00:10:00,0.0,1.9247,0.0009,398.95,0.26,2.4,9.0,138.07,30.36,24.64,36.47,1.06,-5.09,-27.04,-53,527,-911,21.8,24.0,0.3,22.1,1.7,-31.3,5.73,2.32,-28.9,27.6
2012-06-18 00:11:00,0.0,1.9241,0.0008,398.91,0.36,5.3,14.2,138.07,30.36,24.64,36.48,0.95,-6.55,-27.04,-53,527,-911,21.8,23.9,0.3,22.1,1.7,-31.3,5.73,2.35,-28.9,27.5
2012-06-18 00:12:00,0.0,1.9239,0.0011,398.80,0.29,2.5,8.8,138.07,30.36,24.64,36.47,1.00,-7.86,-27.02,-53,527,-911,21.8,24.1,0.4,22.1,1.7,-31.2,5.73,2.33,-28.9,27.5
2012-06-18 00:13:00,0.0,1.9235,0.0009,398.85,0.32,5.5,11.5,138.08,30.36,24.64,36.48,1.06,-8.69,-27.02,-53,527,-911,21.8,24.1,0.4,22.1,1.7,-31.1,5.73,2.32,-28.9,27.5
2012-06-18 00:14:00,0.0,1.9233,0.0010,398.84,0.34,4.4,11.4,138.08,30.36,24.64,36.47,1.01,-9.96,-27.02,-53,527,-911,21.8,24.1,0.4,22.1,1.7,-31.1,5.73,2.36,-28.9,27.5
2012-06-18 00:15:00,0.0,1.9226,0.0009,398.74,0.34,6.6,15.4,138.08,30.35,24.64,36.47,0.94,-11.18,-27.02,-53,527,-911,21.8,24.2,0.4,22.1,1.7,-31.1,5.73,2.33,-28.9,27.5
2012-06-18 00:16:00,0.0,1.9212,0.0009,398.77,0.31,3.9,9.6,138.08,30.35,24.64,36.47,0.99,-12.23,-27.02,-53,527,-910,21.8,24.1,0.4,22.1,1.7,-31.2,5.73,2.32,-29.0,27.4
2012-06-18 00:17:00,0.0,1.9215,0.0009,398.83,0.26,1.9,6.5,138.08,30.35,24.64,36.47,1.06,-13.25,-27.03,-53,527,-911,21.8,24.3,0.5,22.1,1.7,-31.3,5.73,2.35,-29.0,27.5
2012-06-18 00:18:00,0.0,1.9201,0.0010,398.70,0.27,5.6,14.2,138.08,30.35,24.64,36.47,1.01,-14.25,-27.03,-53,527,-911,21.8,24.6,0.6,22.1,1.7,-31.2,5.73,2.33,-29.0,27.5
2012-06-18 00:19:00,0.0,1.9197,0.0012,398.63,0.29,4.1,12.0,138.08,30.35,24.64,36.48,0.94,-15.17,-27.03,-53,527,-911,21.8,24.7,0.7,22.1,1.7,-31.2,5.73,2.32,-29.0,27.5
2012-06-18 00:20:00,0.0,1.9235,0.0010,398.69,0.32,6.1,15.5,138.08,30.35,24.64,36.47,0.98,-16.02,-27.04,-53,527,-910,21.8,24.8,0.8,22.1,1.7,-31.3,5.73,2.35,-29.0,27.5
2012-06-18 00:21:00,0.0,1.9207,0.0014,398.68,0.32,5.5,13.6,138.08,30.35,24.64,36.47,1.04,-16.79,-27.05,-53,527,-911,21.8,24.8,0.8,22.1,1.7,-31.3,5.73,2.33,-29.0,27.4
2012-06-18 00:22:00,0.0,1.9200,0.0013,398.59,0.33,5.3,14.7,138.08,30.35,24.64,36.48,1.04,-17.50,-27.06,-53,527,-910,21.8,24.9,0.8,22.1,1.7,-31.3,5.73,2.32,-29.0,27.4
2012-06-18 00:23:00,0.0,1.9222,0.0011,398.57,0.30,3.1,9.6,138.08,30.35,24.64,36.48,0.95,-18.18,-27.06,-53,527,-911,21.8,24.9,0.8,22.0,1.7,-31.3,5.73,2.36,-29.0,27.4
2012-06-18 00:24:00,0.0,1.9219,0.0008,398.60,0.31,3.8,11.3,138.08,30.35,24.64,36.47,0.96,-18.83,-27.07,-53,527,-911,21.8,24.8,0.8,22.1,1.7,-31.2,5.73,2.34,-29.0,27.5
2012-06-18 00:25:00,0.0,1.9215,0.0013,398.71,0.29,4.7,12.0,138.08,30.35,24.64,36.47,1.02,-19.47,-27.08,-53,528,-911,21.8,24.7,0.7,22.0,1.7,-31.4,5.73,2.32,-29.0,27.4
2012-06-18 00:26:00,0.0,1.9242,0.0009,398.64,0.30,1.9,7.9,138.08,30.34,24.64,36.48,1.04,-20.08,-27.09,-53,527,-911,21.8,24.6,0.7,22.0,1.7,-31.3,5.73,2.35,-29.0,27.4
2012-06-18 00:27:00,0.0,1.9252,0.0009,398.61,0.31,9.2,16.2,138.08,30.34,24.64,36.48,0.98,-20.66,-27.11,-53,527,-911,21.8,24.5,0.6,22.1,1.7,-31.3,5.73,2.34,-29.1,27.4
2012-06-18 00:28:00,0.0,1.9250,0.0016,398.62,0.31,7.3,16.8,138.08,30.34,24.64,36.48,0.95,-21.22,-27.12,-53,527,-911,21.8,24.7,0.7,22.1,1.7,-31.3,5.73,2.32,-29.0,27.4
2012-06-18 00:29:00,0.0,1.9199,0.0013,398.60,0.28,6.2,13.6,138.08,30.33,24.64,36.48,0.99,-21.73,-27.13,-53,527,-911,21.8,24.8,0.8,22.0,1.7,-31.3,5.73,2.34,-29.1,27.4
2012-06-18 00:30:00,0.0,1.9194,0.0008,398.68,0.29,6.5,15.7,138.08,30.33,24.64,36.47,1.04,-22.22,-27.14,-53,527,-911,21.8,24.7,0.7,22.0,1.7,-31.3,5.73,2.36,-29.1,27.4
2012-06-18 00:31:00,0.0,1.9202,0.0011,398.46,0.25,2.9,9.4,138.08,30.33,24.64,36.48,1.03,-22.68,-27.15,-53,527,-911,21.8,25.0,0.9,22.0,1.7,-31.3,5.73,2.33,-29.1,27.4
2012-06-18 00:32:00,0.0,1.9219,0.0010,398.60,0.39,6.0,12.5,138.08,30.32,24.64,36.47,0.96,-23.11,-27.16,-54,527,-911,21.8,25.0,0.9,22.0,1.7,-31.3,5.73,2.33,-29.1,27.4
2012-06-18 00:33:00,0.0,1.9218,0.0011,398.50,0.29,5.7,12.3,138.08,30.32,24.65,36.47,0.96,-23.50,-27.18,-53,527,-910,21.8,25.1,0.9,22.1,1.7,-31.3,5.73,2.36,-29.1,27.4
2012-06-18 00:34:00,0.0,1.9217,0.0009,398.61,0.32,1.3,5.8,138.08,30.32,24.64,36.47,1.01,-23.89,-27.19,-53,527,-911,21.8,25.0,0.9,22.1,1.7,-31.4,5.73,2.34,-29.1,27.4
2012-06-18 00:35:00,0.0,1.9212,0.0010,398.58,0.30,5.7,14.4,138.08,30.32,24.64,36.47,1.03,-24.24,-27.21,-53,527,-911,21.8,24.9,0.9,22.0,1.7,-31.5,5.73,2.33,-29.1,27.3
2012-06-18 00:36:00,0.0,1.9214,0.0015,398.49,0.29,6.8,13.4,138.08,30.32,24.64,36.48,1.00,-24.58,-27.22,-54,527,-910,21.8,25.0,0.9,22.0,1.7,-31.5,5.73,2.35,-29.1,27.3
2012-06-18 00:37:00,0.0,1.9225,0.0010,398.58,0.30,5.4,13.1,138.08,30.31,24.64,36.47,0.95,-24.90,-27.23,-54,527,-911,21.8,25.0,0.9,22.0,1.7,-31.5,5.73,2.35,-29.1,27.4
2012-06-18 00:38:00,0.0,1.9219,0.0012,398.49,0.26,9.5,16.6,138.08,30.31,24.64,36.48,0.95,-25.20,-27.24,-54,527,-910,21.8,25.1,1.0,22.0,1.7,-31.5,5.73,2.32,-29.1,27.4
2012-06-18 00:39:00,0.0,1.9218,0.0008,398.56,0.29,7.4,14.8,138.08,30.31,24.64,36.47,1.01,-25.48,-27.25,-53,528,-910,21.8,25.1,1.0,22.0,1.7,-31.5,5.73,2.34,-29.1,27.4
2012-06-18 00:40:00,0.0,1.9227,0.0012,398.60,0.30,5.8,14.0,138.08,30.31,24.64,36.47,1.04,-25.74,-27.26,-54,527,-910,21.9,25.2,1.0,22.0,1.7,-31.5,5.73,2.37,-29.1,27.4
2012-06-18 00:41:00,0.0,1.9226,0.0007,398.54,0.26,4.0,9.6,138.08,30.31,24.64,36.47,1.01,-25.99,-27.27,-54,527,-910,21.8,25.2,1.0,22.0,1.7,-31.5,5.73,2.33,-29.1,27.4
2012-06-18 00:42:00,0.0,1.9221,0.0013,398.41,0.28,6.9,12.7,138.08,30.30,24.64,36.48,0.93,-26.23,-27.28,-54,527,-910,21.9,25.3,1.1,22.0,1.7,-31.5,5.73,2.33,-29.1,27.3
2012-06-18 00:43:00,0.0,1.9217,0.0010,398.44,0.28,7.3,12.7,138.08,30.30,24.64,36.47,0.97,-26.45,-27.29,-54,527,-910,21.8,25.3,1.1,22.1,1.7,-31.4,5.73,2.36,-29.1,27.3
2012-06-18 00:44:00,0.0,1.9220,0.0012,398.42,0.35,6.7,14.9,138.08,30.30,24.64,36.48,1.02,-26.66,-27.30,-53,528,-910,21.8,25.2,1.0,22.0,1.7,-31.5,5.73,2.35,-29.1,27.4
2012-06-18 00:45:00,0.0,1.9223,0.0009,398.44,0.29,9.9,16.0,138.08,30.30,24.64,36.48,1.04,-26.86,-27.31,-54,527,-910,21.8,25.1,1.0,22.1,1.7,-31.4,5.73,2.32,-29.1,27.3
2012-06-18 00:46:00,0.0,1.9227,0.0010,398.56,0.30,5.9,13.5,138.08,30.30,24.64,36.47,0.99,-27.04,-27.32,-54,527,-910,21.9,25.2,1.0,22.0,1.7,-31.4,5.73,2.35,-29.1,27.3
2012-06-18 00:47:00,0.0,1.9216,0.0009,398.51,0.32,7.4,11.8,138.08,30.30,24.64,36.47,0.94,-27.22,-27.33,-53,528,-910,21.8,25.2,1.1,22.0,1.6,-31.6,5.73,2.35,-29.1,27.3
2012-06-18 00:48:00,0.0,1.9211,0.0010,398.43,0.30,6.9,13.7,138.08,30.30,24.64,36.47,0.96,-27.17,-27.34,-54,527,-910,21.8,25.3,1.1,22.1,1.6,-31.6,5.73,2.33,-29.1,27.3
2012-06-18 00:49:00,0.0,1.9220,0.0008,398.37,0.31,5.0,11.4,138.08,30.29,24.64,36.47,0.98,-26.89,-27.34,-54,527,-910,21.9,25.4,1.2,22.1,1.6,-31.6,5.73,2.33,-29.1,27.3
2012-06-18 00:50:00,0.0,1.9224,0.0013,398.36,0.29,6.5,17.1,138.08,30.29,24.64,36.48,1.03,-26.97,-27.35,-54,527,-910,21.9,25.5,1.2,22.0,1.6,-31.6,5.73,2.36,-29.1,27.4
2012-06-18 00:51:00,0.0,1.9232,0.0009,398.54,0.29,5.9,12.0,138.08,30.29,24.64,36.47,1.03,-27.12,-27.36,-54,527,-910,21.9,25.3,1.1,22.0,1.6,-31.6,5.73,2.33,-29.1,27.4
2012-06-18 00:52:00,0.0,1.9233,0.0008,398.52,0.30,5.8,13.7,138.08,30.29,24.64,36.48,0.98,-27.28,-27.36,-54,527,-910,21.8,25.2,1.0,22.0,1.6,-31.7,5.73,2.33,-29.1,27.4
2012-06-18 00:53:00,0.0,1.9248,0.0014,398.64,0.31,8.4,18.1,138.08,30.29,24.64,36.47,0.96,-27.14,-27.37,-53,527,-910,21.8,25.1,1.0,22.0,1.6,-31.7,5.73,2.36,-29.1,27.3
2012-06-18 00:54:00,0.0,1.9276,0.0009,398.56,0.24,8.3,15.4,138.08,30.28,24.64,36.47,0.96,-26.92,-27.38,-53,527,-910,21.8,24.9,0.9,22.1,1.6,-31.6,5.73,2.35,-29.1,27.4
2012-06-18 00:55:00,0.0,1.9295,0.0012,398.47,0.30,9.5,16.4,138.08,30.28,24.65,36.48,0.95,-27.02,-27.38,-54,527,-910,21.8,25.0,0.9,22.0,1.6,-31.6,5.73,2.32,-29.1,27.4
2012-06-18 00:56:00,0.0,1.9287,0.0015,398.54,0.31,7.7,13.8,138.08,30.28,24.64,36.48,0.98,-27.17,-27.40,-53,527,-910,21.8,25.0,0.9,22.0,1.6,-31.6,5.73,2.35,-29.1,27.4
2012-06-18 00:57:00,0.0,1.9290,0.0017,398.65,0.29,7.8,15.5,138.08,30.28,24.64,36.47,1.00,-27.33,-27.37,-54,527,-910,21.8,24.8,0.8,22.0,1.6,-31.6,5.73,2.35,-29.1,27.3
2012-06-18 00:58:00,0.0,1.9300,0.0019,398.66,0.28,6.9,13.7,138.08,30.28,24.64,36.47,0.82,-27.51,-26.42,-53,527,-910,21.8,24.9,0.9,22.1,1.6,-31.7,5.73,2.33,-29.1,27.3
2012-06-18 00:59:00,0.0,1.9274,0.0019,398.67,0.25,6.4,13.9,138.08,30.28,24.64,36.48,0.90,-27.63,-24.56,-53,527,-910,21.8,25.0,0.9,22.0,1.8,-30.9,5.73,2.35,-29.1,27.4
2012-06-18 01:00:00,0.0,1.9287,0.0015,398.73,0.30,4.3,11.1,138.08,30.28,24.65,36.47,0.95,-27.68,-22.57,-53,527,-910,21.8,25.0,0.9,22.1,1.9,-29.9,5.73,2.36,-29.1,27.4
2012-06-18 01:01:00,0.0,1.9282,0.0011,398.72,0.31,7.5,15.8,138.08,30.28,24.64,36.47,0.91,-27.69,-20.62,-54,527,-910,21.8,24.9,0.9,22.0,2.1,-29.2,5.73,2.33,-29.1,27.4
2012-06-18 01:02:00,0.0,1.9281,0.0012,398.71,0.29,4.3,12.7,138.08,30.28,24.64,36.47,0.78,-27.67,-18.76,-53,527,-910,21.8,24.9,0.8,22.0,2.1,-28.9,5.73,2.35,-29.1,27.4
2012-06-18 01:03:00,0.0,1.9280,0.0013,398.70,0.28,6.9,16.8,138.08,30.27,24.64,36.47,0.83,-27.63,-16.98,-53,527,-910,21.8,24.7,0.7,22.0,2.1,-28.9,5.73,2.36,-29.1,27.4
2012-06-18 01:04:00,0.0,1.9294,0.0010,398.80,0.22,6.6,13.6,138.08,30.27,24.64,36.47,0.91,-27.60,-15.31,-53,527,-910,21.8,24.6,0.7,22.1,2.1,-29.0,5.73,2.33,-29.1,27.4
2012-06-18 01:05:00,0.0,1.9293,0.0009,398.79,0.27,7.8,14.4,138.08,30.27,24.64,36.48,0.96,-27.55,-13.71,-53,527,-910,21.8,24.7,0.7,22.1,2.1,-29.2,5.73,2.34,-29.1,27.4
2012-06-18 01:06:00,0.0,1.9272,0.0012,398.85,0.30,6.6,15.6,138.08,30.27,24.64,36.47,0.87,-27.51,-12.20,-53,527,-910,21.8,24.8,0.8,22.1,2.0,-29.3,5.73,2.36,-29.1,27.4
2012-06-18 01:07:00,0.0,1.9272,0.0010,398.93,0.26,8.7,16.2,138.08,30.27,24.64,36.46,0.79,-27.46,-10.77,-53,527,-910,21.8,24.6,0.6,22.1,2.0,-29.4,5.73,2.33,-29.1,27.5
2012-06-18 01:08:00,0.0,1.9271,0.0009,398.89,0.29,6.6,12.4,138.08,30.27,24.64,36.47,0.86,-27.41,-9.41,-53,527,-910,21.8,24.4,0.5,22.1,2.0,-29.5,5.73,2.34,-29.1,27.5
2012-06-18 01:09:00,0.0,1.9273,0.0011,398.87,0.23,9.9,16.8,138.08,30.27,24.64,36.47,0.93,-27.37,-8.12,-53,527,-910,21.8,24.4,0.5,22.1,2.0,-29.6,5.73,2.36,-29.1,27.5
2012-06-18 01:10:00,0.0,1.9276,0.0008,398.81,0.30,8.7,16.1,138.08,30.27,24.64,36.47,0.95,-27.32,-6.90,-53,527,-910,21.8,24.5,0.6,22.1,2.0,-29.7,5.73,2.33,-29.1,27.5
2012-06-18 01:11:00,0.0,1.9266,0.0008,398.74,0.29,9.5,16.4,138.08,30.27,24.64,36.48,0.92,-27.29,-5.74,-53,527,-910,21.8,24.6,0.7,22.1,1.9,-29.8,5.73,2.34,-29.1,27.5
2012-06-18 01:12:00,0.0,1.9269,0.0009,398.70,0.26,7.9,16.0,138.08,30.27,24.64,36.48,0.82,-27.25,-4.64,-53,527,-910,21.8,24.7,0.7,22.1,1.9,-29.8,5.73,2.36,-29.1,27.5
2012-06-18 01:13:00,0.0,1.9246,0.0011,398.71,0.32,8.3,15.3,138.08,30.27,24.64,36.48,0.84,-27.21,-3.58,-53,527,-910,21.8,24.9,0.8,22.1,1.9,-30.0,5.73,2.32,-29.1,27.5
2012-06-18 01:14:00,0.0,1.9251,0.0009,398.62,0.29,3.1,9.8,138.08,30.27,24.64,36.47,0.92,-27.17,-2.59,-53,527,-910,21.8,25.0,0.9,22.1,1.9,-30.0,5.73,2.34,-29.1,27.5
2012-06-18 01:15:00,0.0,1.9235,0.0011,398.54,0.25,6.5,14.5,138.08,30.27,24.64,36.47,0.91,-27.14,-1.64,-53,527,-910,21.8,25.2,1.0,22.0,1.9,-30.0,5.73,2.35,-29.1,27.5
2012-06-18 01:16:00,0.0,1.9238,0.0010,398.53,0.29,4.1,11.7,138.08,30.27,24.64,36.48,0.95,-27.10,-0.73,-53,527,-910,21.8,25.2,1.0,22.1,1.9,-30.0,5.73,2.32,-29.1,27.6
2012-06-18 01:17:00,0.0,1.9260,0.0009,398.60,0.33,4.8,12.2,138.08,30.27,24.64,36.48,0.94,-27.07,0.13,-53,527,-910,21.8,25.0,0.9,22.1,1.9,-30.1,5.73,2.35,-29.1,27.6
2012-06-18 01:18:00,0.0,1.9267,0.0019,398.83,0.30,4.0,11.9,138.08,30.26,24.64,36.47,0.85,-27.04,0.95,-53,527,-909,21.8,24.5,0.6,22.1,1.9,-30.1,5.73,2.34,-29.0,27.6
2012-06-18 01:19:00,0.0,1.9316,0.0010,398.98,0.34,6.4,15.1,138.08,30.26,24.64,36.47,0.84,-27.01,1.73,-53,527,-910,21.8,24.2,0.4,22.1,1.9,-30.1,5.73,2.32,-29.0,27.6
2012-06-18 01:20:00,0.0,1.9320,0.0008,398.93,0.28,4.4,9.8,138.07,30.26,24.64,36.48,0.89,-26.98,2.43,-53,527,-909,21.8,24.0,0.3,22.1,1.9,-30.1,5.73,2.36,-29.0,27.6
2012-06-18 01:21:00,0.0,1.9320,0.0011,399.14,0.29,5.8,13.9,138.08,30.26,24.64,36.47,0.90,-26.96,2.98,-53,527,-910,21.8,23.9,0.3,22.1,1.9,-30.1,5.73,2.33,-29.0,27.6
2012-06-18 01:22:00,0.0,1.9321,0.0009,399.02,0.30,5.7,12.8,138.08,30.26,24.64,36.47,0.94,-26.93,3.26,-53,527,-910,21.8,23.9,0.3,22.1,1.9,-30.2,5.73,2.33,-29.0,27.6
2012-06-18 01:23:00,0.0,1.9322,0.0009,399.06,0.29,6.3,14.3,138.08,30.26,24.64,36.47,0.95,-26.91,3.55,-53,527,-909,21.8,23.8,0.2,22.1,1.9,-30.3,5.73,2.35,-29.0,27.6
2012-06-18 01:24:00,0.0,1.9318,0.0010,398.99,0.30,4.6,11.1,138.07,30.26,24.64,36.48,0.94,-26.88,4.00,-53,527,-909,21.8,23.9,0.2,22.1,1.9,-30.3,5.73,2.32,-29.0,27.6
2012-06-18 01:25:00,0.0,1.9325,0.0010,399.05,0.33,6.8,14.7,138.08,30.26,24.64,36.47,0.87,-26.86,4.57,-53,527,-910,21.8,23.9,0.3,22.1,1.9,-30.3,5.73,2.34,-29.0,27.7
2012-06-18 01:26:00,0.0,1.9334,0.0009,399.07,0.29,7.2,15.6,138.08,30.26,24.64,36.47,0.84,-26.84,5.15,-53,527,-910,21.8,23.8,0.2,22.1,1.9,-30.3,5.73,2.35,-29.0,27.7
2012-06-18 01:27:00,0.0,1.9331,0.0010,399.07,0.30,9.2,14.0,138.08,30.26,24.64,36.48,0.89,-26.81,5.69,-53,527,-910,21.8,23.8,0.2,22.1,1.9,-30.3,5.73,2.32,-29.0,27.7
2012-06-18 01:28:00,0.0,1.9331,0.0008,398.98,0.29,7.9,18.1,138.07,30.26,24.64,36.48,0.90,-26.80,6.22,-53,527,-909,21.8,23.8,0.2,22.1,1.8,-30.3,5.73,2.35,-29.0,27.7
2012-06-18 01:29:00,0.0,1.9341,0.0009,399.02,0.30,5.1,13.5,138.07,30.27,24.64,36.48,0.92,-26.78,6.71,-53,527,-909,21.8,23.7,0.1,22.1,1.9,-30.3,5.73,2.33,-29.0,27.7
2012-06-18 01:30:00,0.0,1.9343,0.0009,399.12,0.27,5.7,11.2,138.08,30.27,24.64,36.47,0.93,-26.76,7.20,-53,527,-910,21.8,23.7,0.1,22.1,1.8,-30.3,5.73,2.33,-28.9,27.6
2012-06-18 01:31:00,0.0,1.9351,0.0010,399.21,0.30,7.9,13.4,138.07,30.27,24.64,36.47,0.95,-26.75,7.65,-53,527,-910,21.8,23.7,0.1,22.1,1.8,-30.3,5.73,2.35,-28.9,27.6
2012-06-18 01:32:00,0.0,1.9352,0.0009,399.15,0.28,9.9,16.6,138.08,30.27,24.64,36.47,0.95,-26.73,8.08,-53,527,-910,21.8,23.7,0.1,22.1,1.9,-30.3,5.73,2.31,-29.0,27.6
2012-06-18 01:33:00,0.0,1.9347,0.0008,399.19,0.27,10.1,17.7,138.08,30.27,24.64,36.48,0.88,-26.71,8.50,-53,527,-910,21.8,23.5,0.0,22.1,1.8,-30.3,5.73,2.35,-29.0,27.6
2012-06-18 01:34:00,0.0,1.9358,0.0009,399.24,0.29,11.0,20.3,138.08,30.27,24.64,36.48,0.88,-26.69,8.90,-53,527,-909,21.8,23.4,-0.1,22.1,1.9,-30.3,5.73,2.33,-29.0,27.6
2012-06-18 01:35:00,0.0,1.9360,0.0009,399.39,0.30,7.6,15.7,138.08,30.27,24.64,36.47,0.85,-26.69,9.28,-53,527,-910,21.8,23.2,-0.2,22.1,1.9,-30.3,5.73,2.32,-28.9,27.6
2012-06-18 01:36:00,0.0,1.9358,0.0011,399.36,0.30,8.4,15.9,138.08,30.27,24.64,36.47,0.89,-26.67,9.66,-53,527,-910,21.8,23.2,-0.2,22.1,1.8,-30.3,5.73,2.35,-28.9,27.6
2012-06-18 01:37:00,0.0,1.9359,0.0012,399.27,0.31,8.3,18.9,138.07,30.27,24.64,36.48,0.91,-26.65,10.02,-53,527,-910,21.8,23.3,-0.1,22.1,1.9,-30.3,5.73,2.31,-28.9,27.6
2012-06-18 01:38:00,0.0,1.9362,0.0008,399.23,0.31,8.7,13.9,138.08,30.27,24.64,36.48,0.92,-26.64,10.38,-53,527,-910,21.8,23.4,-0.1,22.1,1.9,-30.3,5.73,2.34,-28.9,27.6
2012-06-18 01:39:00,0.0,1.9350,0.0011,399.06,0.32,6.2,14.9,138.08,30.27,24.64,36.48,0.94,-26.63,10.72,-53,527,-910,21.8,23.6,0.1,22.1,1.8,-30.3,5.73,2.34,-28.9,27.7
2012-06-18 01:40:00,0.0,1.9364,0.0010,399.19,0.31,7.6,15.1,138.08,30.27,24.64,36.47,0.95,-26.62,11.05,-53,527,-909,21.7,23.7,0.1,22.1,1.9,-30.3,5.73,2.31,-28.9,27.7
2012-06-18 01:41:00,0.0,1.9367,0.0011,399.27,0.30,6.9,13.6,138.08,30.27,24.64,36.47,0.95,-26.61,11.37,-53,527,-910,21.7,23.7,0.1,22.1,1.9,-30.3,5.73,2.35,-28.9,27.7
2012-06-18 01:42:00,0.0,1.9350,0.0013,399.23,0.27,8.6,15.2,138.08,30.27,24.64,36.48,0.91,-26.59,11.68,-53,527,-909,21.8,23.7,0.1,22.1,1.9,-30.3,5.73,2.32,-28.9,27.8
2012-06-18 01:43:00,0.0,1.9360,0.0011,399.23,0.29,7.0,14.2,138.08,30.27,24.64,36.47,0.87,-26.58,11.97,-53,527,-909,21.8,23.8,0.2,22.1,1.9,-30.3,5.73,2.33,-28.9,27.8
2012-06-18 01:44:00,0.0,1.9350,0.0016,399.10,0.27,7.5,15.6,138.08,30.27,24.64,36.48,0.88,-26.58,12.26,-53,527,-909,21.8,23.8,0.2,22.1,1.9,-30.3,5.73,2.34,-28.9,27.7
2012-06-18 01:45:00,0.0,1.9356,0.0011,399.18,0.27,6.0,14.5,138.08,30.27,24.64,36.47,0.88,-26.57,12.54,-53,527,-910,21.8,23.8,0.2,22.1,1.8,-30.3,5.73,2.31,-28.9,27.8
2012-06-18 01:46:00,0.0,1.9345,0.0012,399.18,0.33,9.9,15.9,138.08,30.27,24.64,36.47,0.91,-26.56,12.80,-53,527,-909,21.8,23.8,0.2,22.1,1.9,-30.3,5.73,2.35,-28.9,27.7
2012-06-18 01:47:00,0.0,1.9344,0.0018,399.24,0.30,8.6,16.9,138.08,30.27,24.64,36.47,0.91,-26.55,13.06,-53,527,-910,21.8,23.6,0.1,22.1,1.9,-30.3,5.73,2.31,-28.9,27.7
2012-06-18 01:48:00,0.0,1.9361,0.0010,399.32,0.31,5.6,13.9,138.08,30.27,24.64,36.47,0.93,-26.54,13.30,-53,527,-910,21.8,23.5,0.0,22.1,1.8,-30.3,5.73,2.33,-28.9,27.7
2012-06-18 01:49:00,0.0,1.9360,0.0009,399.37,0.31,8.4,15.1,138.08,30.27,24.64,36.47,0.94,-26.53,13.54,-53,528,-909,21.8,23.3,-0.1,22.1,1.8,-30.3,5.73,2.34,-28.9,27.7
2012-06-18 01:50:00,0.0,1.9365,0.0010,399.27,0.33,5.5,12.7,138.08,30.27,24.64,36.47,0.94,-26.52,13.76,-53,527,-909,21.8,23.3,-0.1,22.1,1.8,-30.3,5.73,2.31,-28.9,27.8
2012-06-18 01:51:00,0.0,1.9363,0.0008,399.32,0.27,8.5,15.6,138.08,30.27,24.64,36.47,0.95,-26.52,13.97,-53,527,-910,21.8,23.5,0.0,22.1,1.8,-30.3,5.73,2.35,-28.9,27.8
2012-06-18 01:52:00,0.0,1.9359,0.0010,399.33,0.33,5.2,12.3,138.08,30.27,24.64,36.47,0.94,-26.51,14.18,-53,527,-910,21.8,23.5,0.0,22.1,1.8,-30.3,5.73,2.31,-28.9,27.8
2012-06-18 01:53:00,0.0,1.9363,0.0010,399.38,0.25,9.6,16.7,138.07,30.27,24.64,36.48,0.90,-26.50,14.38,-53,527,-909,21.8,23.2,-0.1,22.1,1.8,-30.3,5.73,2.34,-28.8,27.8
2012-06-18 01:54:00,0.0,1.9353,0.0012,399.36,0.30,8.0,15.2,138.07,30.27,24.64,36.47,0.91,-26.50,14.57,-53,527,-909,21.8,23.3,-0.0,22.1,1.8,-30.3,5.73,2.33,-28.8,27.8
2012-06-18 01:55:00,0.0,1.9333,0.0009,399.16,0.29,12.7,19.6,138.07,30.27,24.64,36.48,0.88,-26.49,14.75,-53,527,-909,21.8,23.5,0.0,22.2,1.9,-30.2,5.73,2.32,-28.8,27.8
2012-06-18 01:56:00,0.0,1.9346,0.0007,399.26,0.24,8.0,17.1,138.07,30.27,24.64,36.48,0.89,-26.48,14.92,-53,527,-909,21.9,23.4,0.0,22.2,1.9,-30.2,5.73,2.35,-28.8,27.8
2012-06-18 01:57:00,0.0,1.9361,0.0010,399.30,0.27,7.9,14.7,138.07,30.27,24.64,36.47,0.91,-26.47,15.09,-53,527,-909,21.8,23.5,0.0,22.2,1.9,-30.2,5.73,2.30,-28.8,27.8
2012-06-18 01:58:00,0.0,1.9366,0.0009,399.17,0.27,8.1,15.9,138.08,30.28,24.64,36.48,0.90,-26.47,15.25,-53,527,-909,21.9,23.5,0.1,22.1,1.9,-30.3,5.73,2.34,-28.8,27.8
2012-06-18 01:59:00,0.0,1.9355,0.0013,399.28,0.29,6.0,12.0,138.07,30.28,24.64,36.48,0.93,-26.46,15.40,-53,528,-909,21.9,23.4,0.0,22.2,1.8,-30.3,5.73,2.31,-28.8,27.8
2012-06-18 02:00:00,0.0,1.9363,0.0009,399.25,0.30,10.3,18.1,138.07,30.28,24.64,36.48,0.93,-26.45,15.55,-53,527,-909,21.9,23.3,-0.0,22.2,1.9,-30.2,5.73,2.32,-28.8,27.7
2012-06-18 02:01:00,0.0,1.9365,0.0008,399.34,0.30,10.8,16.4,138.07,30.28,24.64,36.47,0.95,-26.45,15.68,-53,527,-909,21.9,23.2,-0.1,22.1,1.9,-30.2,5.73,2.33,-28.8,27.7
2012-06-18 02:02:00,0.0,1.9360,0.0010,399.38,0.25,8.3,14.7,138.08,30.28,24.64,36.47,0.95,-26.44,15.82,-53,528,-909,21.9,23.3,-0.1,22.1,1.8,-30.3,5.73,2.31,-28.8,27.8
2012-06-18 02:03:00,0.0,1.9351,0.0010,399.32,0.32,11.2,17.7,138.08,30.28,24.64,36.47,0.94,-26.44,15.94,-53,528,-909,21.9,23.1,-0.1,22.1,1.8,-30.3,5.73,2.34,-28.8,27.7
2012-06-18 02:04:00,0.0,1.9367,0.0009,399.45,0.31,7.1,15.1,138.08,30.28,24.64,36.47,0.91,-26.43,16.06,-53,527,-909,21.9,23.0,-0.2,22.2,1.8,-30.4,5.73,2.30,-28.8,27.8
2012-06-18 02:05:00,0.0,1.9361,0.0009,399.43,0.31,7.1,14.1,138.08,30.28,24.64,36.47,0.89,-26.43,16.18,-53,527,-909,21.9,23.0,-0.2,22.2,1.8,-30.4,5.73,2.34,-28.8,27.8
2012-06-18 02:06:00,0.0,1.9369,0.0011,399.38,0.28,7.8,14.2,138.07,30.28,24.64,36.48,0.88,-26.42,16.29,-53,528,-909,21.9,22.9,-0.3,22.2,1.8,-30.4,5.73,2.33,-28.8,27.7
2012-06-18 02:07:00,0.0,1.9369,0.0009,399.50,0.30,11.3,19.5,138.07,30.28,24.64,36.48,0.89,-26.42,16.40,-53,528,-909,21.9,22.7,-0.4,22.1,1.8,-30.4,5.73,2.31,-28.8,27.7
2012-06-18 02:08:00,0.0,1.9369,0.0009,399.40,0.34,8.4,15.6,138.08,30.28,24.64,36.48,0.90,-26.41,16.50,-53,528,-909,21.9,22.9,-0.3,22.1,1.8,-30.4,5.73,2.35,-28.8,27.7
2012-06-18 02:09:00,0.0,1.9369,0.0010,399.47,0.27,9.0,15.4,138.08,30.28,24.64,36.48,0.90,-26.41,16.59,-53,527,-909,21.9,22.8,-0.3,22.2,1.8,-30.4,5.73,2.30,-28.8,27.7
2012-06-18 02:10:00,0.0,1.9372,0.0007,399.59,0.29,10.4,16.7,138.08,30.28,24.64,36.47,0.93,-26.41,16.69,-53,527,-909,21.9,22.8,-0.3,22.2,1.8,-30.4,5.73,2.34,-28.8,27.7
2012-06-18 02:11:00,0.0,1.9365,0.0008,399.57,0.34,7.4,12.8,138.08,30.28,24.64,36.47,0.93,-26.41,16.77,-53,528,-909,21.9,22.9,-0.3,22.1,1.8,-30.4,5.73,2.32,-28.8,27.7
2012-06-18 02:12:00,0.0,1.9355,0.0011,399.49,0.28,8.9,16.5,138.08,30.28,24.64,36.47,0.92,-26.41,16.86,-53,527,-909,21.9,23.0,-0.2,22.2,1.8,-30.4,5.73,2.31,-28.8,27.7
2012-06-18 02:13:00,0.0,1.9364,0.0009,399.52,0.31,8.0,13.5,138.08,30.28,24.64,36.47,0.94,-26.40,16.95,-53,528,-909,21.9,23.0,-0.2,22.2,1.8,-30.4,5.73,2.34,-28.8,27.7
2012-06-18 02:14:00,0.0,1.9360,0.0010,399.36,0.37,10.1,17.5,138.08,30.28,24.64,36.48,0.95,-26.40,17.02,-53,528,-909,21.9,23.0,-0.2,22.2,1.8,-30.4,5.73,2.30,-28.8,27.8
2012-06-18 02:15:00,0.0,1.9367,0.0009,399.49,0.30,7.7,14.5,138.08,30.28,24.64,36.47,0.94,-26.40,17.10,-53,527,-909,21.9,23.1,-0.1,22.1,1.8,-30.4,5.73,2.34,-28.8,27.7
2012-06-18 02:16:00,0.0,1.9367,0.0009,399.44,0.27,10.5,17.1,138.08,30.28,24.64,36.47,0.92,-26.39,17.17,-53,528,-909,21.9,23.1,-0.1,22.2,1.8,-30.4,5.73,2.31,-28.8,27.8
2012-06-18 02:17:00,0.0,1.9363,0.0010,399.44,0.28,6.5,13.8,138.08,30.28,24.64,36.47,0.90,-26.39,17.23,-53,528,-909,21.9,23.1,-0.1,22.2,1.8,-30.4,5.73,2.32,-28.8,27.8
2012-06-18 02:18:00,0.0,1.9368,0.0009,399.52,0.33,5.7,13.7,138.08,30.28,24.64,36.46,0.88,-26.39,17.30,-53,528,-909,21.9,23.0,-0.2,22.2,1.8,-30.4,5.73,2.34,-28.8,27.8
2012-06-18 02:19:00,0.0,1.9366,0.0009,399.36,0.29,8.9,13.6,138.08,30.28,24.64,36.48,0.90,-26.39,17.36,-53,528,-909,21.9,23.0,-0.2,22.2,1.8,-30.3,5.73,2.31,-28.8,27.8
2012-06-18 02:20:00,0.0,1.9366,0.0009,399.44,0.31,10.0,17.1,138.08,30.27,24.64,36.48,0.91,-26.39,17.43,-53,528,-909,21.9,23.1,-0.1,22.2,1.8,-30.4,5.73,2.34,-28.8,27.8
2012-06-18 02:21:00,0.0,1.9363,0.0010,399.44,0.31,5.3,11.2,138.08,30.27,24.64,36.48,0.90,-26.39,17.48,-53,528,-909,21.9,23.0,-0.2,22.2,1.8,-30.4,5.73,2.31,-28.8,27.8